This is the latest recevied weather packets stored in our database for station/object K5GTX. If no packets are shown the sender has not sent any weather packets the latest 10 day(s).
| Time | Temp. | Humidity | Pressure | Rain* | Wind** | Luminosity | Snow |
|---|---|---|---|---|---|---|---|
| 1778015443 | 32.78° C | 99% | 1010 hPa | 0 mm | - | 418 W/m² | - |
| 1778015140 | 32.78° C | 99% | 1010 hPa | 0 mm | - | 650 W/m² | - |
| 1778014837 | 32.78° C | 99% | 1010.3 hPa | 0 mm | - | 676 W/m² | - |
| 1778014535 | 31.67° C | 99% | 1010.2 hPa | 0 mm | - | 690 W/m² | - |
| 1778014233 | 31.11° C | 99% | 1010.6 hPa | 0 mm | - | 267 W/m² | - |
| 1778013930 | 30.56° C | 99% | 1010.3 hPa | 0 mm | - | 212 W/m² | - |
| 1778013627 | 30.56° C | 99% | 1010.4 hPa | 0 mm | - | 159 W/m² | - |
| 1778013324 | 31.67° C | 99% | 1010.8 hPa | 0 mm | - | 221 W/m² | - |
| 1778013021 | 31.67° C | 99% | 1010.5 hPa | 0 mm | - | 684 W/m² | - |
| 1778012716 | 31.67° C | 99% | 1010.5 hPa | 0 mm | - | 643 W/m² | - |
| 1778012412 | 32.22° C | 99% | 1010.8 hPa | 0 mm | - | 714 W/m² | - |
| 1778012110 | 31.11° C | 99% | 1010.7 hPa | 0 mm | - | 212 W/m² | - |
| 1778011807 | 30.56° C | 99% | 1010.6 hPa | 0 mm | - | 652 W/m² | - |
| 1778011505 | 31.67° C | 99% | 1010.6 hPa | 0 mm | - | 420 W/m² | - |
| 1778011201 | 30.56° C | 99% | 1011 hPa | 0 mm | - | 393 W/m² | - |
| 1778010898 | 31.11° C | 99% | 1010.9 hPa | 0 mm | - | 371 W/m² | - |
| 1778010595 | 30.56° C | 99% | 1011.1 hPa | 0 mm | - | 684 W/m² | - |
| 1778010293 | 30.56° C | 99% | 1011.1 hPa | 0 mm | - | 613 W/m² | - |
| 1778009993 | 30° C | 99% | 1011.2 hPa | 0 mm | - | 593 W/m² | - |
| 1778009690 | 30° C | 99% | 1010.9 hPa | 0 mm | - | 389 W/m² | - |
| 1778009387 | 30.56° C | 99% | 1010.8 hPa | 0 mm | - | 625 W/m² | - |
| 1778009086 | 30° C | 99% | 1011 hPa | 0 mm | - | 613 W/m² | - |
| 1778008783 | 30° C | 99% | 1010.8 hPa | 0 mm | - | 646 W/m² | - |
| 1778008482 | 30° C | 99% | 1010.7 hPa | 0 mm | - | 569 W/m² | - |
| 1778008178 | 29.44° C | 99% | 1010.9 hPa | 0 mm | - | 521 W/m² | - |
* Rain latest hour (hover to see other rain measurements)
** Current wind speed in m/s (hover to see current wind gust speed)